Find Starlink 32040

NORAD ID: 60109 Int'l Des: 2024-117 Owner: SPXS Country: US Constellation: starlink operational
LEOCIRCULAR

Live Position

Loading 3D Globe...

About Starlink 32040

Description loading...

Upcoming Passes

Passes for default location (London). Set your location on the main map for personalized predictions.

Altitude History

Loading altitude history...

Two-Line Element Set

1 60109U 24117U 26126.37667845 -.00000899 00000-0 -18232-4 0 9992
2 60109 53.1595 128.8189 0001165 92.1341 267.9793 15.30185452105728
Epoch: May 6, 2026 • Age: 21 hours

Current Status

Altitude 478.0 km
Velocity 7.63 km/s
Sub-Earth Point 39.21°N, 47.4°W
Launch Date Jun 23, 2024
Age 1.8 years
Type internet

Technical Details

Classification Payload
Mass 730.00 kg
Dry Mass 700.00 kg
Total Mass 730.00 kg
Length 0.30 m
Diameter 4.10 m
Span 29.00 m
Shape Box + pan
Manufacturer SPXS
Bus Type Starlink V2M
Phase Status In Orbit
Owner/State SPXS/US

Most Searched